Weather History for KRST - September, 2013

Change the Weather History Date:

Sunday, September 1, 2013

  Actual Average Record
Temperature  
Mean Temperature 67 °F 66 °F  
Max Temperature 75 °F 76 °F 94 °F (1937)
Min Temperature 58 °F 56 °F 34 °F (1909)
Degree Days  
Heating Degree Days 0 2  
Month to date heating degree days 0 2  
Since 1 July heating degree days 34 40  
Cooling Degree Days 2 3  
Month to date cooling degree days 2 3  
Year to date cooling degree days 558 528  
Growing Degree Days 20 (Base 50)    
Moisture  
Dew Point 63 °F    
Average Humidity 79    
Maximum Humidity 97    
Minimum Humidity 61    
Precipitation  
Precipitation T in 0.13 in 2.21 in (1942)
Month to date precipitation T 0.13  
Year to date precipitation 34.70 24.32  
Snow  
Snow 0.00 in 0.00 in 0.00 in (2012)
Month to date snowfall 0.0 0.0  
Since 1 July snowfall 0.0 0.0  
Snow Depth 0.00 in    
Sea Level Pressure  
Sea Level Pressure 29.84 in    
Wind  
Wind Speed 11 mph (NW)    
Max Wind Speed 21 mph    
Max Gust Speed 28 mph    
Visibility 10 miles    
Events Rain    
T = Trace of Precipitation, MM = Missing Value Source: NWS Daily Summary

Daily Weather History Graph

Daily Weather History Graph

Search for Another Location

Airport or City:

Trip Planner

Search our weather history database for the weather conditions in past years. The results will help you decide how hot, cold, wet, or windy it might be!

Date:

Astronomy

Sep. 01, 2013 Rise Set
Actual Time 6:33 AM CDT 7:45 PM CDT
Civil Twilight 6:03 AM CDT 8:14 PM CDT
Nautical Twilight 5:28 AM CDT 8:50 PM CDT
Astronomical Twilight 4:50 AM CDT 9:27 PM CDT
Moon 2:51 AM CDT (9/1) 5:26 PM CDT (9/1)
Length of Visible Light 14h 10m
Length of Day
13h 11m
Waning Crescent, 13% of the Moon is Illuminated
Sep 1
Waning Crescent
Sep 5
New
Sep 12
First Quarter
Sep 19
Full
Sep 26
Last Quarter

Hourly Weather History & Observations

Time (CDT) Temp. Dew Point Humidity Pressure Visibility Wind Dir Wind Speed Gust Speed Precip Events Conditions
12:54 AM 71.1 °F 66.0 °F 84% 29.76 in 10.0 mi South 10.4 mph - N/A   Partly Cloudy
1:54 AM 70.0 °F 66.9 °F 90% 29.82 in 9.0 mi NW 17.3 mph 24.2 mph N/A   Scattered Clouds
2:46 AM 71.6 °F 68.0 °F 88% 29.76 in 10.0 mi Variable 4.6 mph - 0.00 in Rain Light Rain
2:54 AM 73.0 °F 66.9 °F 81% 29.76 in 10.0 mi Variable 5.8 mph - 0.00 in   Mostly Cloudy
3:54 AM 70.0 °F 66.9 °F 90% 29.76 in 9.0 mi SSW 6.9 mph - N/A   Clear
4:54 AM 70.0 °F 68.0 °F 93% 29.76 in 8.0 mi West 4.6 mph - N/A   Mostly Cloudy
5:26 AM 71.6 °F 68.0 °F 88% 29.80 in 7.0 mi NNW 4.6 mph - N/A   Overcast
5:41 AM 71.6 °F 68.0 °F 88% 29.80 in 8.0 mi NW 4.6 mph - N/A   Overcast
5:50 AM 71.6 °F 68.0 °F 88% 29.81 in 8.0 mi NNW 6.9 mph - N/A   Overcast
5:54 AM 71.1 °F 68.0 °F 90% 29.78 in 8.0 mi NNW 8.1 mph - N/A   Overcast
6:02 AM 71.6 °F 68.0 °F 88% 29.81 in 9.0 mi NNW 6.9 mph - N/A   Overcast
6:36 AM 69.8 °F 66.2 °F 88% 29.80 in 9.0 mi North 4.6 mph - N/A   Mostly Cloudy
6:42 AM 69.8 °F 66.2 °F 88% 29.80 in 9.0 mi NNW 6.9 mph - N/A   Scattered Clouds
6:54 AM 69.1 °F 66.0 °F 90% 29.78 in 9.0 mi NW 9.2 mph - N/A   Partly Cloudy
7:54 AM 69.1 °F 66.0 °F 90% 29.80 in 10.0 mi WNW 8.1 mph - N/A   Mostly Cloudy
8:54 AM 70.0 °F 63.0 °F 78% 29.82 in 10.0 mi NW 9.2 mph - N/A   Mostly Cloudy
9:54 AM 72.0 °F 62.1 °F 71% 29.83 in 10.0 mi NW 12.7 mph 18.4 mph N/A   Partly Cloudy
10:41 AM 71.6 °F 62.6 °F 73% 29.86 in 10.0 mi NW 12.7 mph 19.6 mph N/A   Mostly Cloudy
10:54 AM 72.0 °F 62.1 °F 71% 29.85 in 10.0 mi NW 15.0 mph 20.7 mph N/A   Mostly Cloudy
11:54 AM 71.1 °F 60.1 °F 68% 29.85 in 10.0 mi NW 11.5 mph - N/A   Mostly Cloudy
12:54 PM 73.0 °F 59.0 °F 61% 29.86 in 10.0 mi NNW 15.0 mph 23.0 mph N/A   Mostly Cloudy
1:37 PM 73.4 °F 59.0 °F 61% 29.87 in 10.0 mi NNW 13.8 mph 23.0 mph N/A   Mostly Cloudy
1:54 PM 73.9 °F 59.0 °F 59% 29.85 in 10.0 mi NW 18.4 mph 25.3 mph N/A   Mostly Cloudy
2:54 PM 73.0 °F 59.0 °F 61% 29.85 in 10.0 mi NNW 12.7 mph - N/A   Overcast
3:54 PM 72.0 °F 57.0 °F 59% 29.86 in 10.0 mi NNW 17.3 mph - 0.00 in   Overcast
4:54 PM 72.0 °F 57.0 °F 59% 29.87 in 10.0 mi NNW 17.3 mph 23.0 mph N/A   Overcast
5:54 PM 70.0 °F 57.0 °F 63% 29.88 in 10.0 mi NNW 12.7 mph - N/A   Scattered Clouds
6:54 PM 70.0 °F 57.0 °F 63% 29.90 in 10.0 mi NNW 13.8 mph - N/A   Clear
7:54 PM 66.0 °F 57.0 °F 73% 29.91 in 10.0 mi NNW 9.2 mph - N/A   Clear
8:54 PM 66.9 °F 57.0 °F 70% 29.94 in 10.0 mi NNW 6.9 mph - N/A   Overcast
9:54 PM 66.9 °F 57.9 °F 73% 29.95 in 10.0 mi NNW 8.1 mph - N/A   Overcast
10:54 PM 64.9 °F 57.9 °F 78% 29.96 in 10.0 mi NW 5.8 mph - N/A   Overcast
11:54 PM 61.0 °F 55.9 °F 83% 29.97 in 10.0 mi NW 8.1 mph - N/A   Scattered Clouds